Regional Weather Roundup
Issued by NWS

Home | Current Version | Previous Version | Text Only | Print | Product List | Glossary Off
Versions: 1 2 3 4 5 6 7 8 9 10 11 12 13 14 15 16 17 18 19 20 21 22 23 24 25 26 27 28 29 30 31 32 33 34 35 36 37 38 39 40 41 42 43 44 45 46 47 48 49 50

000
ASUS45 KCYS 230010
RWRWY

WYOMING REGIONAL WEATHER ROUNDUP
NATIONAL WEATHER SERVICE CHEYENNE WY
600 PM MDT TUE JUL 22 2014

NOTE:  "FAIR" INDICATES FEW OR NO CLOUDS BELOW 12,000 FEET
WITH NO SIGNIFICANT WEATHER AND/OR OBSTRUCTIONS TO VISIBILITY.

WYZ001-230100-
YELLOWSTONE NATIONAL PARK

CITY           SKY/WX    TMP DP  RH WIND       PRES   REMARKS
LK YELLOWSTONE   N/A     72  40  31 VRB5      30.49S
6HR MIN TEMP:  66; 6HR MAX TEMP:  76;

W YELLOWSTONE  NOT AVBL

$$
WYZ002>013-054>058-071-098>099-230100-
NORTHERN WYOMING

CITY           SKY/WX    TMP DP  RH WIND       PRES   REMARKS
JACKSON        SUNNY     84  34  16 CALM      30.34F
CODY           MOSUNNY   88  45  22 NE8       30.20F
GREYBULL       SUNNY     96  36  12 VRB3      30.10S HX  91
6HR MIN TEMP:  89; 6HR MAX TEMP:  98;

WORLAND        SUNNY     96  34  11 VRB5      30.11F HX  91
6HR MIN TEMP:  89; 6HR MAX TEMP:  98;

SHERIDAN       SUNNY     92  52  25 NW12      30.14S
6HR MIN TEMP:  80; 6HR MAX TEMP:  95;

BUFFALO        SUNNY     90  43  19 N12       30.23S
6HR MIN TEMP:  84; 6HR MAX TEMP:  95;

GILLETTE       MOSUNNY   86  50  28 N12       30.18R
6HR MIN TEMP:  85; 6HR MAX TEMP:  94;

HULETT         FAIR      70  64  83 MISG      30.21
NEWCASTLE      FAIR      88  50  27 SE21      30.17

$$
WYZ014>020-022>026-101>103-230100-
CENTRAL WYOMING

CITY           SKY/WX    TMP DP  RH WIND       PRES   REMARKS
BIG PINEY      SUNNY     86  31  13 W13       30.39F
6HR MIN TEMP:  74; 6HR MAX TEMP:  88;

PINEDALE       CLEAR     82  27  13 CALM      30.40S
DUBOIS         FAIR      81  32  17 W13G21    30.40S
LANDER         SUNNY     92  31  11 N5        30.23S
6HR MIN TEMP:  81; 6HR MAX TEMP:  95;

RIVERTON       SUNNY     93  34  12 VRB7      30.24S
6HR MIN TEMP:  79; 6HR MAX TEMP:  93;

CASPER         SUNNY     91  33  12 E7        30.22F
6HR MIN TEMP:  82; 6HR MAX TEMP:  96; 6HR PCP:  0.01;

DOUGLAS        MOSUNNY   90  52  27 SE14      30.23F
6HR MIN TEMP:  84; 6HR MAX TEMP:  91;


$$
WYZ021-027>030-104>119-230100-
SOUTHERN WYOMING

CITY           SKY/WX    TMP DP  RH WIND       PRES   REMARKS
EVANSTON       SUNNY     87  27  11 W10       30.36F
6HR MIN TEMP:  79; 6HR MAX TEMP:  89;

KEMMERER       CLEAR     86  23  10 W12G20    30.40S
FORT BRIDGER   FAIR      88  28  11 SE6       30.39F
ROCK SPRINGS   SUNNY     89  23   9 NW9       30.35F
6HR MIN TEMP:  83; 6HR MAX TEMP:  91;

DIXON          FAIR      93  21   7 SW3       30.36F
RAWLINS        SUNNY     89  20   8 VRB3      30.36F
6HR MIN TEMP:  83; 6HR MAX TEMP:  92;

SARATOGA       FAIR      88  27  11 N6        30.40S
LARAMIE        SUNNY     83  51  33 SE18      30.42R
6HR MIN TEMP:  80; 6HR MAX TEMP:  88;

CHEYENNE       MOSUNNY   82  49  31 SE9       30.36R
6HR MIN TEMP:  80; 6HR MAX TEMP:  86;

TORRINGTON     SUNNY     90  58  33 E17       30.18F
6HR MIN TEMP:  85; 6HR MAX TEMP:  93;

PINE BLUFFS    FAIR      86  50  28 SE12      30.29R

$$



USA.gov is the U.S. government's official web portal to all federal, state and local government web resources and services.